www.pogodaiklimat.ru

Погода и климат >> Архив погоды >> Франция >> Нант


АРХИВ ПОГОДЫ в Нанте

Время (UTC), дата Ветер
(напр.,м/с)
 
Видим.   Явления Облачность Т
(С)
Тd
(С)
f
(%)
Тe
(С)
Тes
(С)
Комфортность P
(гПа)
Po
(гПа)
Тmin
(С)
Tmax
(С)
R
(мм)
R24
(мм)
S
(см)
07 9.09 Ю 1 29 км н/о +8.5 +7.4 93 +8 +8 очень
холодно
1016.9 1013.7
08 9.09 Ю 1 30 км 8/8
[]
+11.4 +9.3 87 +11 +12 холодно 1016.8 1013.6
09 9.09 ЮЗ 2
{4}
19 км 10/10 1500 м
[]
+14.7 +9.1 69 +14 +14 прохладно 1016.6 1013.5 0
10 9.09 ЮЗ 2 50 км 8/8 1500 м
[]
+16.7 +10.1 65 +17 +19 холодно 1016.1 1013.0
11 9.09 ЮЗ 2 50 км 10/8 1000 м
[]
+17.2 +11.0 67 +18 +19 холодно 1015.3 1012.2
12 9.09 ЮЗ 5
{8}
45 км 9/9 600 м
[]
+17.8 +11.4 66 +17 +18 холодно 1014.8 1011.7 0
13 9.09 ЮЗ 3 40 км 10/1 1110 м
[]
+19.2 +9.9 55 +20 +25 прохладно 1014.0 1010.9
14 9.09 ЮЗ 2 11 км слаб. дождь 10/9 1140 м
[]
+16.6 +11.3 71 +17 +17 прохладно 1013.4 1010.3 0.2
15 9.09 ЮЗ 2
{6}
50 км 10/10 1000 м
[]
+16.6 +12.5 77 +17 +17 прохладно 1012.4 1009.3 0.2 0
16 9.09 ЮЗ 2 55 км 10/3 1050 м
[]
+17.1 +11.1 68 +17 +19 прохладно 1011.7 1008.6
17 9.09 ЮЗ 2 60 км 10/1 1020 м
[]
+16.4 +11.1 71 +17 +17 прохладно 1011.3 1008.2 0.0
18 9.09 ЮЗ 2
{7}
700 м сильн. дождь 10/10 300 м
[]
+14.3 +12.7 90 +14 +14 холодно 1011.4 1008.3 +7.5 +19.5 5 0
19 9.09 ЮВ 3 27 км 10/10 1500 м
[]
+13.7 +12.8 94 +13 +13 прохладно 1010.2 1007.1 2
20 9.09 ЮВ 2 30 км 9/1 900 м
[]
+13.4 +12.6 95 +13 +13 прохладно 1010.4 1007.3
21 9.09 ЮВ 5
{7}
2800 м дождь 10/10 300 м
[]
+13.3 +12.4 94 +11 +11 холодно 1010.1 1007.0 3 0
22 9.09 ЮВ 3 28 км 9/6 240 м
[]
+13.2 +12.4 95 +12 +12 по сезону 1009.8 1006.7 1
23 9.09 СВ 1 35 км 10/10 240 м
[]
+13.3 +12.5 95 +14 +14 по сезону 1010.2 1007.1
00 10.09 В 2
{5}
29 км 10/10 300 м
[]
+13.3 +12.4 94 +12 +12 по сезону 1010.5 1007.4 1 0
01 10.09 СВ 1 23 км 10/10 360 м
[]
+13.5 +12.6 94 +14 +14 тепло 1010.8 1007.7
02 10.09 СВ 1 11 км 10/10 210 м
[]
+12.9 +12.0 94 +13 +13 по сезону 1011.1 1008.0
03 10.09 С 2
{5}
12 км 10/10 300 м
[]
+12.4 +11.8 96 +11 +11 по сезону 1011.9 1008.8 0
04 10.09 С 2 14 км 10/9 210 м
[]
+12.4 +11.8 96 +12 +12 тепло 1012.7 1009.6
05 10.09 С 2 17 км н/о +11.9 +11.1 95 +11 +11 по сезону 1013.3 1010.2
06 10.09 С 3
{6}
30 км 8/8 1000 м
[]
+12.0 +11.1 94 +10 +10 по сезону 1014.4 1011.3 +11.9 +14.3 4
07 10.09 С 2 30 км н/о +13.1 +11.7 91 +12 +12 холодно 1015.3 1012.2
08 10.09 СВ 2 55 км н/о +14.6 +11.4 81 +15 +15 прохладно 1016.2 1013.1
09 10.09 СВ 2 30 км н/о +16.6 +11.5 72 +17 +17 по сезону 1017.2 1014.1
10 10.09 С 2 40 км н/о +18.4 +11.5 64 +19 +19 холодно 1018.2 1015.1
11 10.09 СВ 3 50 км н/о +20.0 +9.5 51 +22 +22 комфорт 1018.7 1015.6
12 10.09 С 4
{10}
45 км н/о +21.0 +7.9 43 +22 +22 комфорт 1019.0 1015.9 0
13 10.09 СВ 3 40 км н/о +21.9 +6.9 38 +23 +23 комфорт 1019.3 1016.3
14 10.09 С 2 45 км н/о +22.3 +6.5 36 +23 +23 комфорт 1019.1 1016.1
15 10.09 С 4
{8}
50 км н/о +22.4 +6.2 35 +23 +23 комфорт 1019.2 1016.2 0
16 10.09 С 2 55 км н/о +22.3 +6.5 36 +23 +23 комфорт 1019.6 1016.6
17 10.09 С 2 50 км 10/10 1500 м
[]
+21.5 +7.3 40 +22 +22 комфорт 1020.3 1017.2
18 10.09 С 3
{7}
60 км н/о +19.8 +9.4 51 +21 +21 комфорт 1020.9 1017.8 +12.0 +23.0 0
19 10.09 СЗ 1 19 км н/о +17.0 +9.7 62 +18 +18 по сезону 1021.6 1018.5
20 10.09 СЗ 1 40 км н/о +15.3 +9.6 69 +16 +16 по сезону 1022.4 1019.3
21 10.09 С 2
{5}
60 км н/о +14.1 +9.9 76 +14 +14 прохладно 1023.4 1020.3 0
22 10.09 С 1 60 км н/о +13.9 +10.7 81 +14 +14 тепло 1024.0 1020.9
23 10.09 С 2 55 км н/о +13.9 +11.2 84 +14 +14 тепло 1024.2 1021.1
00 11.09 С 2
{5}
35 км н/о +13.5 +11.5 88 +13 +13 по сезону 1024.6 1021.4 0
01 11.09 С 1 30 км н/о +12.8 +11.2 90 +13 +13 тепло 1024.7 1021.5
02 11.09 С 1 14 км н/о +11.4 +10.1 92 +12 +12 по сезону 1024.4 1021.2
03 11.09 СЗ 2
{3}
12 км н/о +11.9 +11.1 95 +11 +11 по сезону 1024.7 1021.5 0
04 11.09 СЗ 1 11 км н/о +11.4 +10.6 95 +11 +11 тепло 1024.8 1021.6
05 11.09 СЗ 1 9000 м н/о +11.3 +10.5 95 +12 +12 тепло 1025.2 1022.0
06 11.09 С 1
{3}
9000 м 8/0
[]
+11.7 +11.1 96 +11 +11 по сезону 1025.9 1022.7 +11.2 +19.8 0
07 11.09 СЗ 1 9000 м н/о +12.2 +11.7 97 +13 +13 прохладно 1026.7 1023.5
08 11.09 СЗ 1 19 км н/о +13.7 +12.9 95 +14 +14 по сезону 1027.4 1024.2
09 11.09 СЗ 2
{4}
40 км н/о +16.0 +13.3 84 +16 +16 по сезону 1027.9 1024.8 0
10 11.09 З 2 18 км н/о +17.3 +12.0 71 +18 +18 холодно 1027.9 1024.8
11 11.09 З 2 19 км н/о +19.4 +12.4 64 +21 +21 комфорт 1027.8 1024.7
12 11.09 З 4
{8}
55 км н/о +20.6 +8.2 45 +22 +22 комфорт 1027.9 1024.8 0
13 11.09 З 2 55 км н/о +21.8 +6.1 36 +22 +22 комфорт 1027.8 1024.7
14 11.09 СЗ 2 50 км н/о +22.4 +8.9 42 +24 +24 комфорт 1027.5 1024.4
15 11.09 СЗ 5
{8}
55 км н/о +21.5 +12.1 55 +24 +24 комфорт 1027.7 1024.6 0
16 11.09 З 3 45 км н/о +20.3 +13.5 65 +23 +23 комфорт 1027.9 1024.8
17 11.09 З 3 50 км 8/8 700 м
[]
+19.5 +13.9 70 +21 +22 комфорт 1028.2 1025.1
18 11.09 СЗ 4
{8}
45 км н/о +17.8 +13.9 78 +18 +18 по сезону 1028.4 1025.3 +11.6 +22.7 0
19 11.09 СЗ 2 30 км 10/10 480 м
[]
+17.4 +14.1 81 +18 +18 тепло 1028.9 1025.8
20 11.09 СЗ 2 30 км 10/10 450 м
[]
+17.1 +14.4 84 +18 +18 тепло 1029.3 1026.2
21 11.09 З 3
{5}
40 км 10/10 300 м
[]
+17.1 +14.4 84 +17 +17 по сезону 1029.6 1026.5 0
22 11.09 ЮЗ 1 55 км 10/10 480 м
[]
+17.0 +14.5 85 +18 +18 тепло 1029.9 1026.8
23 11.09 ЮЗ 1 18 км 10/10 450 м
[]
+17.0 +14.8 87 +18 +18 тепло 1030.0 1026.9
00 12.09 З 2
{3}
40 км 10/10 300 м
[]
+17.0 +15.0 88 +18 +18 тепло 1030.3 1027.2 0
01 12.09 З 2 19 км 10/10 300 м
[]
+17.0 +15.0 88 +18 +18 тепло 1030.6 1027.5
02 12.09 ЮЗ 1 18 км 10/10 270 м
[]
+16.9 +15.2 90 +18 +18 тепло 1030.5 1027.4
03 12.09 З 2
{3}
6000 м 10/10 300 м
[]
+16.6 +15.5 93 +17 +17 тепло 1030.5 1027.4
04 12.09 ЮЗ 1 5000 м 10/10 180 м
[]
+16.3 +15.5 95 +18 +18 тепло 1030.3 1027.2
05 12.09 ЮЗ 1 6000 м 10/10 180 м
[]
+16.3 +15.7 96 +17 +17 тепло 1030.6 1027.5
06 12.09 З 1
{3}
10 км 10/10 100 м
[]
+16.4 +15.8 96 +17 +17 тепло 1031.0 1027.9 +16.3 +17.8 0
07 12.09 З 1 19 км 10/10 300 м
[]
+16.6 +16.0 96 +17 +17 тепло 1031.5 1028.4
08 12.09 С 1 18 км 10/10 300 м
[]
+17.2 +15.7 91 +18 +18 тепло 1032.0 1028.9
09 12.09 СЗ 2
{4}
18 км 10/10 300 м
[]
+17.8 +15.8 88 +18 +18 тепло 1032.8 1029.7 0
10 12.09 З 2 35 км 10/10 400 м
[]
+18.5 +15.7 84 +20 +20 прохладно 1033.1 1030.0
11 12.09 СЗ 1 26 км 10/10 500 м
[]
+19.7 +15.6 77 +23 +23 комфорт 1033.1 1030.0
12 12.09 З 2
{5}
40 км 10/10 600 м
[]
+20.6 +15.6 73 +24 +24 комфорт 1032.9 1029.8 0
13 12.09 З 1 40 км 10/10 750 м
[]
+22.3 +15.6 66 +26 +26 жарко 1032.7 1029.6
14 12.09 ЮЗ 1 45 км 10/10 870 м
[]
+22.2 +15.5 66 +26 +26 душно 1032.3 1029.2
15 12.09 СЗ 2
{4}
60 км 10/10 600 м
[]
+22.7 +15.5 64 +27 +27 душно 1031.8 1028.7 0
16 12.09 ЮЗ 1 55 км 10/10 1080 м
[]
+22.4 +16.0 67 +27 +27 душно 1031.7 1028.6
17 12.09 СЗ 2 55 км 10/10 800 м
[]
+21.1 +16.1 73 +24 +24 комфорт 1031.5 1028.4
18 12.09 СЗ 4
{7}
60 км н/о +20.8 +16.0 74 +24 +24 комфорт 1031.4 1028.3 +16.4 +23.1 0
19 12.09 З 1 60 км н/о +18.6 +15.5 82 +21 +21 комфорт 1031.7 1028.6
20 12.09 СЗ 2 60 км н/о +17.2 +15.0 87 +18 +18 тепло 1032.2 1029.1
21 12.09 СЗ 1
{5}
60 км н/о +16.3 +14.7 90 +17 +17 по сезону 1032.5 1029.4 0
22 12.09 СЗ 2 60 км н/о +16.1 +15.0 93 +16 +16 тепло 1032.3 1029.2
23 12.09 СЗ 1 55 км н/о +15.3 +14.3 94 +16 +16 тепло 1032.1 1028.9
00 13.09 СЗ 2
{3}
45 км н/о +13.7 +12.9 95 +13 +13 по сезону 1032.0 1028.8 0
01 13.09 С 1 5000 м ?/? +14.2 +13.7 97 +15 +15 тепло 1032.1 1028.9
02 13.09 С 1 1200 м дымка ?/? +13.6 +13.1 97 +14 +14 тепло 1031.9 1028.7
03 13.09 С 1
{3}
11 км ?/? +12.4 +11.9 97 +12 +12 по сезону 1031.7 1028.5 0
04 13.09 С 1 8000 м н/о +12.6 +12.3 98 +13 +13 тепло 1031.5 1028.3
05 13.09 С 1 7000 м н/о +13.5 +13.2 98 +14 +14 тепло 1031.6 1028.4
06 13.09 С 2
{3}
7000 м н/о +13.6 +13.3 98 +13 +13 тепло 1032.2 1029.0 +12.0 +20.7 0.2 0
07 13.09 СВ 2 17 км н/о +15.9 +15.4 97 +16 +16 по сезону 1032.2 1029.1
08 13.09 СВ 2 18 км н/о +18.0 +16.0 88 +19 +19 тепло 1032.7 1029.6
09 13.09 СВ 6
{10}
18 км н/о +20.2 +15.6 75 +23 +23 комфорт 1032.7 1029.6 0
10 13.09 СВ 3 28 км н/о +22.1 +15.7 67 +26 +26 душно 1032.0 1028.9
11 13.09 СВ 3 29 км н/о +23.1 +14.9 60 +27 +27 душно 1031.7 1028.6
12 13.09 СВ 5
{9}
35 км н/о +24.9 +15.2 55 +28 +28 жарко 1031.2 1028.2 0
13 13.09 СВ 3 35 км н/о +25.7 +14.2 49 +28 +28 жарко 1030.5 1027.5
14 13.09 СВ 2 40 км н/о +26.8 +14.5 47 +29 +29 жарко 1029.9 1026.9
15 13.09 СВ 5
{10}
40 км н/о +26.9 +14.0 45 +29 +29 жарко 1029.2 1026.2 0
16 13.09 С 3 35 км н/о +26.6 +14.7 48 +29 +29 жарко 1028.7 1025.7
17 13.09 СВ 2 55 км н/о +25.3 +15.0 53 +28 +28 жарко 1029.0 1026.0
18 13.09 С 3
{8}
60 км н/о +23.5 +14.8 58 +26 +26 жарко 1029.3 1026.2 +13.6 +27.7 0
19 13.09 С 2 55 км н/о +22.5 +14.9 62 +26 +26 жарко 1029.3 1026.2
20 13.09 С 2 60 км н/о +21.2 +14.6 66 +24 +24 комфорт 1029.4 1026.3
21 13.09 С 3
{8}
60 км н/о +20.0 +14.4 70 +22 +22 комфорт 1029.5 1026.4 0
22 13.09 С 2 60 км н/о +19.0 +15.1 78 +21 +21 комфорт 1029.4 1026.3
23 13.09 С 2 60 км н/о +18.7 +15.0 79 +20 +20 тепло 1029.1 1026.0
00 14.09 СВ 3
{6}
60 км н/о +18.1 +14.6 80 +18 +18 тепло 1029.3 1026.2 0
01 14.09 СВ 2 55 км н/о +18.4 +14.5 78 +20 +20 тепло 1029.1 1026.0
02 14.09 СВ 2 55 км н/о +18.1 +14.4 79 +19 +19 тепло 1028.6 1025.5
03 14.09 СВ 4
{8}
60 км н/о +17.8 +14.3 80 +18 +18 тепло 1028.5 1025.4 0
04 14.09 СВ 2 60 км н/о +17.4 +14.3 82 +18 +18 тепло 1028.2 1025.1
05 14.09 СВ 3 17 км н/о +16.9 +14.2 84 +17 +17 тепло 1028.3 1025.2
06 14.09 СВ 5
{9}
55 км н/о +16.6 +14.2 86 +16 +16 тепло 1028.6 1025.5 +16.5 +23.9 0
07 14.09 СВ 3 55 км н/о +17.4 +14.5 83 +18 +18 тепло 1028.7 1025.6
08 14.09 СВ 2 40 км н/о +19.0 +15.1 78 +21 +21 комфорт 1028.7 1025.6
09 14.09 СВ 5
{9}
40 км н/о +20.8 +15.6 72 +24 +24 комфорт 1028.4 1025.3 0
10 14.09 СВ 3 45 км н/о +22.7 +15.8 65 +27 +27 душно 1027.7 1024.6
11 14.09 СВ 3 40 км н/о +24.2 +15.4 58 +27 +27 жарко 1027.3 1024.3
12 14.09 СВ 5
{9}
40 км н/о +26.3 +15.7 52 +29 +29 жарко 1026.7 1023.7 0
13 14.09 СВ 2 50 км н/о +27.3 +15.6 49 +30 +30 душно 1026.2 1023.2
14 14.09 СВ 3 55 км н/о +28.5 +15.4 45 +31 +31 душно 1025.5 1022.5
15 14.09 В 5
{9}
55 км н/о +28.6 +15.2 44 +31 +31 жарко 1025.1 1022.1 0
16 14.09 СВ 2 45 км н/о +28.2 +15.5 46 +31 +31 душно 1024.9 1021.9
17 14.09 СВ 2 50 км н/о +28.2 +15.1 45 +31 +31 душно 1024.8 1021.8
18 14.09 СВ 3
{5}
60 км н/о +27.1 +15.1 48 +30 +30 душно 1024.8 1021.8 +16.5 +29.0 0
19 14.09 СВ 1 35 км н/о +24.5 +15.7 58 +28 +28 душно 1025.1 1022.1
20 14.09 С 1 60 км н/о +21.6 +15.4 68 +25 +25 комфорт 1025.4 1022.3
21 14.09 СВ 2
{4}
60 км н/о +20.5 +15.3 72 +24 +24 комфорт 1025.4 1022.3 0
22 14.09 С 1 60 км н/о +20.0 +13.9 68 +23 +23 комфорт 1025.2 1022.1
23 14.09 СВ 1 60 км н/о +18.6 +14.7 78 +20 +20 тепло 1024.9 1021.8
00 15.09 СВ 2
{3}
60 км н/о +18.0 +14.1 78 +19 +19 тепло 1024.8 1021.7 0
01 15.09 СВ 1 55 км н/о +18.4 +14.1 76 +21 +21 комфорт 1024.6 1021.5
02 15.09 СВ 1 60 км н/о +17.3 +14.4 83 +19 +19 тепло 1024.4 1021.3
03 15.09 С 1
{3}
55 км н/о +15.3 +13.1 87 +16 +16 тепло 1024.2 1021.1 0
04 15.09 СВ 1 55 км н/о +15.0 +13.4 90 +16 +16 тепло 1023.8 1020.7
05 15.09 С 1 50 км н/о +15.6 +13.8 89 +16 +16 тепло 1023.7 1020.6
06 15.09 С 2
{4}
45 км н/о +14.4 +13.1 92 +14 +14 тепло 1023.9 1020.8 +14.2 +27.0 0
07 15.09 СВ 1 18 км н/о +17.4 +14.7 84 +18 +18 тепло 1024.2 1021.1
08 15.09 СВ 2 50 км н/о +20.1 +14.5 70 +23 +23 комфорт 1024.5 1021.4
09 15.09 СВ 4
{6}
55 км н/о +22.4 +15.0 63 +26 +26 жарко 1024.7 1021.6 0
10 15.09 СВ 2 40 км н/о +24.9 +14.7 53 +28 +28 жарко 1024.5 1021.5
11 15.09 СВ 3 40 км н/о +26.7 +14.5 47 +29 +29 жарко 1024.0 1021.0
12 15.09 СВ 5
{8}
50 км н/о +28.1 +14.3 43 +30 +30 жарко 1023.1 1020.1 0
13 15.09 СВ 2 50 км н/о +29.3 +13.5 38 +31 +31 жарко 1022.5 1019.5
14 15.09 СВ 2 50 км н/о +30.0 +12.0 33 +31 +31 жарко 1022.0 1019.0
15 15.09 В 3
{6}
45 км н/о +30.3 +11.3 31 +31 +31 жарко 1021.5 1018.5 0
16 15.09 СВ 2 55 км н/о +29.9 +10.9 31 +30 +30 жарко 1021.0 1018.0
17 15.09 В 2 55 км н/о +29.4 +11.0 32 +30 +30 жарко 1020.8 1017.8
18 15.09 СВ 2
{6}
60 км н/о +26.7 +12.4 41 +28 +28 жарко 1020.9 1017.9 +14.4 +30.6 0
19 15.09 С 1 60 км н/о +23.8 +13.3 52 +26 +26 жарко 1021.2 1018.2
20 15.09 С 2 60 км н/о +23.5 +14.8 58 +26 +26 жарко 1021.8 1018.8
21 15.09 С 4
{8}
60 км н/о +22.0 +15.4 66 +26 +26 душно 1022.2 1019.2 0
22 15.09 С 2 60 км н/о +20.4 +15.0 71 +24 +24 комфорт 1022.3 1019.2
23 15.09 С 2 60 км н/о +19.2 +14.2 73 +21 +21 комфорт 1022.1 1019.0
00 16.09 С 4
{9}
60 км н/о +17.7 +13.4 76 +17 +17 тепло 1022.0 1018.9 0
01 16.09 С 2 60 км н/о +16.9 +13.4 80 +17 +17 тепло 1021.8 1018.7
02 16.09 С 2 50 км н/о +16.1 +13.2 83 +16 +16 тепло 1021.7 1018.6
03 16.09 С 2
{5}
40 км н/о +15.4 +13.2 87 +15 +15 тепло 1021.5 1018.4 0
04 16.09 С 1 30 км н/о +15.0 +13.2 89 +15 +15 тепло 1021.1 1018.0
05 16.09 С 2 19 км н/о +14.7 +13.2 91 +15 +15 тепло 1021.1 1018.0

 

Местоположение метеостанции Нант (Франция): широта 47.15 долгота -1.60 высота над уровнем моря 27 м.

В архиве по умолчанию представлена погода в Нанте за последнюю неделю. Архивные данные за месяц целиком и за предыдущие месяцы, начиная с января 2011 года, Вы можете получить, выбрав интересующий диапазон дат из раскрывающегося списка и нажав кнопку "Ввод!".


*Определитесь, кто Вы:
робот инопланетянин человек

Внимание! Время в таблицах - всемирное. Для получения местного времени необходимо прибавить поправку, которая равна 1 ч.

Смотрите также архив погоды в соседних городах и на ближайших метеорологических станциях:

Погода в Сен-Назере (Франция) (47 км)
Погода в Ла-Рош-сюр-Йоне (Франция) (53 км)
Погода на Шемулене (Франция) (54 км)
Погода на Йе (Франция) (75 км)
Погода в Бокузе (Франция) (84 км)
Погода в Ренне (Франция) (103 км)
Погода в Марсе (Франция) (107 км)
Погода в Ла-Рошель аэропорту (Франция) (112 км)
Погода в Ла-Рошеле (Франция) (116 км)
Погода в Лавале (Франция) (118 км)

Пояснения к столбцам:

Ветер - указаны скорость ветра в м/с - средняя за 10 мин, порывы в срок и между сроками (в фигурных скобках) и направление, откуда дует ветер: С - северный, СВ - северо-восточный, В - восточный, ЮВ - юго-восточный, Ю - южный, ЮЗ - юго-западный, З - западный, СЗ - северо-западный.
Видимость - горизонтальная дальность видимости в метрах или километрах. При видимости от 1 до 10 км при отсутствии осадков обычно наблюдается дымка, при ухудшении видимости до 1 км и менее - туман. В сухую погоду видимость может ухудшаться дымом, пылью или мглою.
Явления - указаны атмосферные явления, наблюдавшиеся в срок или в последний час перед сроком; фигурными скобками обозначены явления, наблюдавшиеся между сроками (за 1-3 часа до срока); квадратными скобками обозначены град или гололедные отложения с указанием их диаметра в мм.
Облачность - указаны через наклонную черту общая и нижняя облачность в баллах и высота нижней границы облаков в метрах; квадратными скобками обозначены формы облаков: Ci - перистые, Cs - перисто-слоистые, Cc - перисто-кучевые, Ac - высококучевые, As - высокослоистые, Sc - слоисто-кучевые, Ns - слоисто-дождевые, Cu - кучевые, Cb - кучево-дождевые. Подробнее классификацию облаков см. в Атласе облаков (PDF).
T - Температура воздуха - температура, измеренная на высоте 2 м над землей.
Td - Температура точки росы - температура, при понижении до которой содержащийся в воздухе водяной пар достигнет насыщения.
f - Относительная влажность воздуха - влажноcть воздуха, измеренная на высоте 2 м над землей.
Te - Эффективная температура - температура, которую ощущает одетый по сезону человек в тени. Характеристика душности погоды. При расчете учитывается влияние влажности воздуха и скорости ветра на теплоощущения человека.
Tes - Эффективная температура на солнце - температура, которую ощущает человек, с поправкой на солнечный нагрев. Характеристика знойности погоды. Зависит от высоты солнца над горизонтом, облачности и скорости ветра. Ночью, в пасмурную погоду, а также при ветре 12 м/с и более поправка равна нулю.
P - Атмосферное давление - приведенное к уровню моря атмосферное давление.
Po - Атмосферное давление - измеренное на уровне метеостанции атмосферное давление.
Tmin - Минимальная температура - минимум температуры воздуха на высоте 2 м над землей.
Tmax - Максимальная температура - максимум температуры воздуха на высоте 2 м над землей.
R - Количество осадков - Количество выпавших осадков за период времени, мм. При наведении курсора мыши на число - период времени, за который выпало указанное количество осадков.
R24 - Количество осадков - Количество выпавших осадков за 24 часа, мм.
S - Снежный покров - Высота снежного покрова, см. При наведении курсора мыши на число - состояние снежного покрова и степень покрытия местности в баллах.